Weather History for KPPA - October, 2012

Change the Weather History Date:

Tuesday, October 9, 2012

  Actual Average Record
Temperature  
Mean Temperature 60 °F -  
Max Temperature 77 °F 74 °F 99 °F (1979)
Min Temperature 42 °F 45 °F 29 °F (1970)
Degree Days  
Heating Degree Days 6    
Growing Degree Days 10 (Base 50)    
Moisture  
Dew Point 35 °F    
Average Humidity 51    
Maximum Humidity 87    
Minimum Humidity 12    
Precipitation  
Precipitation 0.00 in - - ()
Sea Level Pressure  
Sea Level Pressure 29.96 in    
Wind  
Wind Speed 13 mph (NNE)    
Max Wind Speed 20 mph    
Max Gust Speed 26 mph    
Visibility 10 miles    
Events      
Averages and records for this station are not official NWS values.
T = Trace of Precipitation, MM = Missing Value Source: NWS Daily Summary

Daily Weather History Graph

Daily Weather History Graph

Search for Another Location

Airport or City:

Trip Planner

Search our weather history database for the weather conditions in past years. The results will help you decide how hot, cold, wet, or windy it might be!

Date:

Astronomy

Oct. 09, 2012 Rise Set
Actual Time 7:45 AM CDT 7:15 PM CDT
Civil Twilight 7:20 AM CDT 7:41 PM CDT
Nautical Twilight 6:50 AM CDT 8:10 PM CDT
Astronomical Twilight 6:21 AM CDT 8:40 PM CDT
Moon 1:36 AM CDT (10/9) 3:33 PM CDT (10/9)
Length of Visible Light 12h 21m
Length of Day
11h 29m
Last Quarter, 36% of the Moon is Illuminated
Oct 9
Last Quarter
Oct 15
New
Oct 21
First Quarter
Oct 29
Full
Nov 6
Last Quarter

Hourly Weather History & Observations

Time (CDT) Temp. Windchill Dew Point Humidity Pressure Visibility Wind Dir Wind Speed Gust Speed Precip Events Conditions
12:15 AM 50.0 °F - 37.4 °F 62% 29.93 in 10.0 mi South 17.3 mph - N/A   Clear
12:35 AM 48.2 °F - 37.4 °F 66% 29.92 in 10.0 mi South 17.3 mph - N/A   Clear
12:55 AM 48.2 °F - 37.4 °F 66% 29.92 in 10.0 mi South 17.3 mph - N/A   Clear
1:15 AM 46.4 °F 40.4 °F 37.4 °F 71% 29.91 in 10.0 mi South 13.8 mph 20.7 mph N/A   Clear
1:35 AM 46.4 °F 40.4 °F 37.4 °F 71% 29.90 in 10.0 mi South 13.8 mph 20.7 mph N/A   Clear
1:55 AM 46.4 °F 39.8 °F 37.4 °F 71% 29.89 in 10.0 mi South 16.1 mph - N/A   Clear
2:15 AM 46.4 °F 40.4 °F 37.4 °F 71% 29.89 in 10.0 mi South 13.8 mph 19.6 mph N/A   Clear
2:35 AM 46.4 °F 41.1 °F 37.4 °F 71% 29.89 in 10.0 mi South 11.5 mph - N/A   Clear
2:55 AM 44.6 °F 42.2 °F 37.4 °F 76% 29.89 in 10.0 mi South 4.6 mph - N/A   Clear
3:15 AM 44.6 °F 39.2 °F 39.2 °F 81% 29.89 in 10.0 mi South 10.4 mph - N/A   Clear
3:35 AM 44.6 °F 38.4 °F 39.2 °F 81% 29.87 in 10.0 mi South 12.7 mph - N/A   Clear
3:55 AM 44.6 °F 39.2 °F 39.2 °F 81% 29.87 in 10.0 mi South 10.4 mph - N/A   Clear
4:15 AM 44.6 °F 40.2 °F 39.2 °F 81% 29.87 in 10.0 mi South 8.1 mph - N/A   Clear
4:35 AM 44.6 °F 38.8 °F 39.2 °F 81% 29.86 in 10.0 mi South 11.5 mph - N/A   Clear
4:55 AM 42.8 °F 38.6 °F 39.2 °F 87% 29.86 in 10.0 mi South 6.9 mph - N/A   Clear
5:15 AM 42.8 °F 37.0 °F 39.2 °F 87% 29.86 in 10.0 mi SSW 10.4 mph - N/A   Clear
5:35 AM 44.6 °F 39.2 °F 41.0 °F 87% 29.86 in 10.0 mi SSW 10.4 mph - N/A   Clear
5:55 AM 44.6 °F 40.7 °F 39.2 °F 81% 29.87 in 10.0 mi SSW 6.9 mph - N/A   Clear
6:15 AM 42.8 °F 37.5 °F 39.2 °F 87% 29.87 in 10.0 mi SW 9.2 mph - N/A   Clear
6:35 AM 42.8 °F 38.0 °F 39.2 °F 87% 29.87 in 10.0 mi WSW 8.1 mph - N/A   Clear
6:55 AM 42.8 °F 37.0 °F 37.4 °F 81% 29.87 in 10.0 mi WSW 10.4 mph - N/A   Clear
7:15 AM 42.8 °F 37.0 °F 39.2 °F 87% 29.87 in 10.0 mi West 10.4 mph - N/A   Clear
7:55 AM 44.6 °F 38.8 °F 39.2 °F 81% 29.88 in 10.0 mi West 11.5 mph - N/A   Clear
8:15 AM 46.4 °F 41.1 °F 41.0 °F 81% 29.89 in 10.0 mi West 11.5 mph - N/A   Clear
8:35 AM 50.0 °F - 42.8 °F 76% 29.89 in 10.0 mi West 10.4 mph - N/A   Clear
8:55 AM 53.6 °F - 42.8 °F 67% 29.89 in 10.0 mi West 9.2 mph - N/A   Clear
9:15 AM 55.4 °F - 41.0 °F 58% 29.90 in 10.0 mi West 9.2 mph - N/A   Clear
9:35 AM 59.0 °F - 37.4 °F 45% 29.91 in 10.0 mi WNW 10.4 mph - N/A   Clear
9:55 AM 60.8 °F - 37.4 °F 42% 29.91 in 10.0 mi West 10.4 mph - N/A   Clear
10:15 AM 64.4 °F - 35.6 °F 34% 29.92 in 10.0 mi West 9.2 mph - N/A   Clear
10:35 AM 68.0 °F - 33.8 °F 28% 29.92 in 10.0 mi West 10.4 mph - N/A   Clear
10:55 AM 69.8 °F - 33.8 °F 27% 29.92 in 10.0 mi WNW 11.5 mph - N/A   Clear
11:15 AM 71.6 °F - 30.2 °F 22% 29.92 in 10.0 mi NW 9.2 mph - N/A   Clear
11:35 AM 73.4 °F - 28.4 °F 19% 29.93 in 10.0 mi NNW 12.7 mph - N/A   Clear
11:55 AM 73.4 °F - 26.6 °F 18% 29.93 in 10.0 mi NNW 15.0 mph 19.6 mph N/A   Clear
12:15 PM 71.6 °F - 28.4 °F 20% 29.93 in 10.0 mi NNW 12.7 mph - N/A   Clear
12:35 PM 73.4 °F - 28.4 °F 19% 29.93 in 10.0 mi North 9.2 mph - N/A   Clear
12:55 PM 73.4 °F - 23.0 °F 15% 29.93 in 10.0 mi North 12.7 mph 18.4 mph N/A   Clear
1:15 PM 75.2 °F - 23.0 °F 14% 29.94 in 10.0 mi North 11.5 mph 16.1 mph N/A   Clear
1:35 PM 75.2 °F - 21.2 °F 13% 29.93 in 10.0 mi North 13.8 mph 18.4 mph N/A   Clear
1:55 PM 75.2 °F - 21.2 °F 13% 29.94 in 10.0 mi NNE 17.3 mph 23.0 mph N/A   Clear
2:15 PM 77.0 °F - 21.2 °F 12% 29.94 in 10.0 mi North 15.0 mph - N/A   Clear
2:35 PM 77.0 °F - 21.2 °F 12% 29.93 in 10.0 mi North 16.1 mph 26.5 mph N/A   Clear
2:55 PM 75.2 °F - 23.0 °F 14% 29.94 in 10.0 mi North 16.1 mph 25.3 mph N/A   Clear
3:15 PM 75.2 °F - 26.6 °F 17% 29.94 in 10.0 mi NNE 15.0 mph 20.7 mph N/A   Clear
3:35 PM 73.4 °F - 28.4 °F 19% 29.96 in 10.0 mi NNE 16.1 mph 21.9 mph N/A   Clear
3:55 PM 71.6 °F - 28.4 °F 20% 29.96 in 10.0 mi NNE 12.7 mph 21.9 mph N/A   Clear
4:15 PM 73.4 °F - 32.0 °F 22% 29.96 in 10.0 mi NE 17.3 mph 20.7 mph N/A   Clear
4:35 PM 71.6 °F - 32.0 °F 23% 29.97 in 10.0 mi NE 19.6 mph - N/A   Clear
4:55 PM 69.8 °F - 32.0 °F 25% 29.98 in 10.0 mi NNE 17.3 mph 21.9 mph N/A   Clear
5:15 PM 69.8 °F - 33.8 °F 27% 29.99 in 10.0 mi NE 17.3 mph - N/A   Clear
5:35 PM 69.8 °F - 33.8 °F 27% 29.99 in 10.0 mi NE 19.6 mph 24.2 mph N/A   Clear
5:55 PM 68.0 °F - 33.8 °F 28% 30.00 in 10.0 mi NE 16.1 mph 21.9 mph N/A   Clear
6:15 PM 66.2 °F - 35.6 °F 32% 30.00 in 10.0 mi NE 16.1 mph 21.9 mph N/A   Clear
6:35 PM 64.4 °F - 35.6 °F 34% 30.01 in 10.0 mi NE 13.8 mph - N/A   Clear
6:55 PM 62.6 °F - 35.6 °F 37% 30.02 in 10.0 mi NE 12.7 mph - N/A   Clear
7:15 PM 60.8 °F - 35.6 °F 39% 30.03 in 10.0 mi ENE 13.8 mph - N/A   Clear
7:35 PM 59.0 °F - 35.6 °F 42% 30.03 in 10.0 mi NE 12.7 mph - N/A   Clear
7:55 PM 55.4 °F - 35.6 °F 47% 30.04 in 10.0 mi NE 11.5 mph - N/A   Clear
8:15 PM 55.4 °F - 35.6 °F 47% 30.05 in 10.0 mi NE 15.0 mph - N/A   Clear
8:35 PM 55.4 °F - 35.6 °F 47% 30.06 in 10.0 mi NE 13.8 mph - N/A   Clear
8:55 PM 53.6 °F - 35.6 °F 51% 30.07 in 10.0 mi NE 16.1 mph - N/A   Clear
9:15 PM 53.6 °F - 37.4 °F 54% 30.07 in 10.0 mi NE 17.3 mph 20.7 mph N/A   Clear
9:35 PM 51.8 °F - 37.4 °F 58% 30.10 in 10.0 mi ENE 13.8 mph - N/A   Clear
9:55 PM 51.8 °F - 37.4 °F 58% 30.11 in 10.0 mi ENE 10.4 mph - N/A   Clear
10:15 PM 50.0 °F - 37.4 °F 62% 30.13 in 10.0 mi NE 11.5 mph - N/A   Clear
10:35 PM 50.0 °F - 37.4 °F 62% 30.14 in 10.0 mi NE 15.0 mph - N/A   Clear
10:55 PM 50.0 °F - 37.4 °F 62% 30.15 in 10.0 mi NE 15.0 mph 19.6 mph N/A   Clear
11:15 PM 48.2 °F - 37.4 °F 66% 30.16 in 10.0 mi NE 15.0 mph - N/A   Clear
11:35 PM 48.2 °F - 37.4 °F 66% 30.16 in 10.0 mi NE 16.1 mph - N/A   Clear
11:55 PM 46.4 °F 40.4 °F 37.4 °F 71% 30.17 in 10.0 mi NE 13.8 mph 20.7 mph N/A   Clear